RH
50 49 44 42 32 33 30 30 24 26 26 19 17 18 18 19 20 19 23 32 22 12 11 10 7 5 4 4 3 3 3 3 3 2 2 2 3 4 3 4 4 8 10 11 11 10 12
37 42 46 34 34 32 30 30 26 20 24 23 19 18 18 20 20 21 29 28 21 14 12 11 9 6 5 6 4 3 3 3 3 2 2 2 3 3 4 4 4 7 10 10 11 12 12
31 52 41 32 30 30 30 30 29 21 23 22 20 20 21 21 22 22 26 25 22 17 13 11 12 6 6 6 5 3 3 3 3 2 3 2 3 3 4 4 4 6 11 10 11 12 13
37 53 36 38 32 30 28 29 30 29 25 24 23 24 24 23 25 24 25 27 24 20 17 12 13 10 7 8 7 4 4 3 3 4 4 3 3 4 4 4 5 6 10 10 12 12 14
39 47 40 42 35 32 30 31 29 27 32 32 30 29 30 31 29 27 26 27 26 24 24 16 13 12 9 10 9 6 4 3 3 4 4 4 4 4 4 5 5 6 10 11 13 13 14
45 40 41 39 40 38 33 37 38 31 29 35 35 33 32 35 31 28 26 28 27 28 26 23 14 13 10 10 10 10 6 4 3 4 5 5 5 4 4 5 6 8 11 14 15 13 17
45 42 34 39 42 43 40 39 41 37 33 34 38 37 35 34 31 27 27 28 31 31 35 27 19 14 12 10 10 11 10 6 4 4 5 6 8 9 6 5 5 10 14 15 14 14 17
45 42 38 50 45 44 46 43 46 41 36 40 45 45 44 39 34 31 29 29 31 36 35 33 27 16 12 12 10 11 13 9 7 5 5 5 7 8 7 6 7 9 11 15 16 15 17
46 46 42 74 65 60 53 58 47 48 38 40 48 46 51 45 40 33 30 34 33 37 39 34 29 29 17 14 12 10 11 11 9 8 6 6 7 8 8 8 8 11 12 14 16 16 19
50 58 51 53 58 70 66 53 60 69 38 40 44 49 48 53 45 36 33 45 41 36 32 34 35 31 21 15 14 11 10 11 10 8 8 7 7 7 8 8 8 10 14 13 16 17 19
49 76 75 62 61 88 68 63 70 80 48 40 44 58 50 51 52 38 36 40 44 44 34 32 34 36 33 18 14 13 11 11 10 10 8 7 6 7 8 9 8 11 13 14 16 18 20
53 60 88 83 72 97 69 62 73 61 50 47 54 47 59 52 52 40 38 42 45 42 35 32 32 32 32 32 16 12 11 10 10 10 8 7 6 7 7 10 10 13 14 15 17 19 20
54 63 88 80 68 93 75 74 76 60 46 41 59 58 50 52 46 45 44 39 41 35 32 31 29 30 32 30 30 14 11 10 9 10 9 8 7 7 8 10 12 12 14 16 18 20 22
52 90 67 59 79 95 81 92 76 60 48 40 56 59 56 50 45 48 50 35 34 33 31 31 32 28 28 31 34 30 13 10 9 9 9 8 9 8 10 11 13 14 16 18 21 23 24
66 60 63 79 82 96 80 98 78 67 50 40 44 53 64 53 45 58 50 45 45 45 42 34 31 31 30 34 33 36 31 14 11 9 12 10 10 10 12 14 15 15 19 20 22 25 26
98 78 92 95 90 100 90 87 77 79 53 38 41 45 64 64 60 68 70 86 77 59 53 49 46 39 30 29 33 32 37 29 16 13 14 15 12 12 14 16 17 18 19 21 23 25 27
95 97 94 100 97 94 100 90 87 90 58 43 44 50 59 69 78 82 91 98 78 58 52 39 41 34 28 28 26 32 38 36 33 20 18 19 17 16 17 18 20 20 21 24 27 31 30
100 93 100 100 100 99 96 98 94 80 60 55 51 52 69 76 81 83 69 99 84 56 56 50 48 52 42 31 27 27 33 46 42 38 24 24 25 23 21 21 22 25 27 28 30 32 33
100 100 93 100 100 90 78 88 95 89 68 68 68 54 71 78 81 95 98 98 100 72 70 65 61 53 51 52 35 28 27 34 44 44 43 33 28 38 31 25 26 28 30 36 42 41 39
100 100 94 100 100 100 100 98 91 100 85 73 72 60 59 58 67 70 98 79 100 73 72 80 80 88 57 61 57 41 29 26 31 43 52 55 48 38 34 36 37 39 39 38 38 40 43
100 100 98 97 99 100 100 100 100 100 100 81 75 76 69 68 67 54 56 67 69 67 74 74 88 100 96 97 98 74 63 49 33 29 32 57 56 56 48 49 43 34 31 31 32 32 32
74 87 79 100 96 100 100 100 100 100 100 96 88 77 83 89 85 63 60 67 68 75 82 81 77 92 100 97 100 100 98 87 86 74 51 34 28 35 90 77 50 57 52 50 46 42 36
94 88 74 100 100 99 85 98 96 100 100 100 96 92 83 83 88 100 86 79 61 64 86 88 81 88 90 95 100 100 100 99 100 100 89 67 67 65 51 34 35 57 68 71 75 57 56
100 100 96 88 100 100 100 100 98 100 100 100 100 100 94 76 76 98 100 100 92 64 64 64 64 76 77 64 65 65 63 76 86 90 94 98 100 97 77 70 67 58 42 32 32 34 44
100 100 100 100 100 100 100 100 100 95 99 100 100 100 100 100 94 82 93 100 100 94 83 80 81 86 83 84 86 76 74 80 92 72 81 86 77 74 88 87 79 93 63 48 43 40 42
86 82 100 100 100 100 100 100 92 97 91 100 100 100 100 100 100 100 100 100 100 100 100 100 96 94 85 92 100 95 94 98 100 100 100 100 99 100 100 78 87 87 71 65 71 65 93
100 88 100 100 100 97 100 100 86 83 86 100 99 96 99 100 100 100 84 88 99 99 99 94 97 98 94 92 93 94 99 100 100 91 80 94 88 95 89 87 90 96 91 64 60 52 43
100 90 91 86 98 100 100 100 91 91 84 86 92 92 90 100 100 100 100 100 99 98 93 96 95 92 93 100 96 93 86 88 99 100 91 88 82 76 70 54 53 49 68 84 84 75 76
87 72 90 87 70 98 100 100 70 60 78 84 85 97 100 100 100 100 100 100 100 100 97 100 100 96 89 98 96 100 100 100 100 100 77 57 78 89 74 73 85 87 72 69 73 67 85
Wind_Speed
20 20 11 17 21 25 29 32 29 26 25 24 25 28 33 36 42 49 57 65 75 82 82 66 56 46 35 28 22 19 19 26 29 33 42 48 57 69 79 86 93 103 109 108 97 92 90
19 7 12 16 20 26 30 31 34 28 23 23 26 29 33 38 45 51 56 64 74 84 78 59 53 44 33 28 21 16 15 19 23 29 38 47 57 65 74 78 87 101 109 106 101 95 94
11 6 12 15 21 27 30 32 34 30 23 23 27 32 37 41 45 52 55 64 73 84 79 59 53 48 35 29 22 12 8 11 19 26 33 44 56 61 68 75 82 96 105 103 101 100 97
5 6 10 15 21 26 30 33 33 34 29 28 31 34 37 41 47 51 55 64 74 83 85 67 58 50 42 34 26 10 5 10 16 22 30 38 50 55 59 69 77 91 101 101 103 100 97
5 7 12 14 21 25 30 35 35 34 33 33 34 36 40 44 47 53 57 62 72 84 90 78 65 57 46 37 29 19 5 7 15 23 30 36 43 49 56 66 74 86 95 102 105 100 95
6 7 10 13 21 22 28 35 36 36 34 35 37 40 43 44 48 53 59 65 71 83 92 90 71 63 54 42 32 25 15 3 10 18 23 27 35 45 56 62 72 81 94 103 103 100 93
9 8 10 14 20 23 26 33 36 37 38 37 39 42 45 45 48 53 58 64 71 78 88 94 80 65 60 47 40 31 23 7 10 13 21 27 36 46 56 64 71 88 96 99 99 96 90
12 11 12 14 17 22 26 32 37 36 38 39 41 43 45 47 50 52 57 62 70 76 83 88 97 74 60 50 42 35 26 14 8 13 19 27 35 43 49 55 65 81 96 98 100 94 87
16 14 13 14 18 22 24 32 37 36 36 38 40 41 44 46 49 52 56 61 67 74 79 84 91 93 64 51 44 37 28 18 8 9 18 25 29 36 43 53 69 84 93 98 95 92 87
18 18 16 17 20 23 24 30 33 35 35 37 38 39 42 44 47 49 53 59 64 68 72 80 88 94 79 59 47 40 29 22 12 5 13 21 28 34 41 53 68 83 91 95 95 93 88
19 20 21 19 24 21 24 28 30 32 34 33 36 38 39 43 44 45 49 55 60 65 70 75 83 90 96 71 53 40 31 25 18 9 12 19 28 37 44 54 68 81 91 92 92 90 88
20 20 21 20 22 21 24 25 27 29 32 31 32 36 38 40 41 42 47 52 57 61 67 73 78 84 89 94 68 50 37 30 24 15 12 19 29 38 45 57 68 80 88 90 90 87 83
21 21 20 22 21 22 24 24 28 27 28 29 30 34 35 36 37 40 44 47 52 56 61 69 75 81 85 89 90 64 44 34 27 20 12 18 24 36 48 59 69 79 83 84 84 83 80
21 22 23 25 25 23 25 23 26 26 26 25 27 29 33 31 33 36 40 43 48 52 58 63 70 74 80 85 90 89 61 41 30 23 16 19 25 34 48 60 66 75 77 77 79 78 78
25 25 24 24 25 25 28 25 25 23 23 25 23 24 28 28 29 32 36 42 46 50 54 58 63 68 73 78 84 88 85 58 39 27 21 18 27 38 50 58 65 71 71 72 73 75 75
28 28 26 28 28 27 30 26 26 25 20 24 22 22 24 26 26 29 35 39 42 47 51 53 56 59 64 70 74 79 83 78 55 36 23 19 25 38 48 55 60 63 67 68 70 70 70
32 32 29 28 30 30 30 29 26 24 20 21 21 21 22 24 24 28 30 36 41 46 48 52 52 55 58 59 63 67 71 76 74 49 32 21 22 31 40 49 53 56 58 62 64 64 63
37 34 34 32 31 32 30 28 27 23 20 20 20 21 19 21 22 24 27 34 38 42 45 47 48 52 55 57 58 56 60 63 67 71 44 29 18 22 31 35 43 48 51 53 55 55 56
40 39 36 35 34 33 32 31 31 26 23 21 18 20 18 19 22 22 25 28 32 37 38 40 43 46 48 49 52 53 52 51 55 56 58 47 30 16 7 21 28 35 40 43 46 49 52
48 45 42 38 35 37 35 34 33 31 27 22 23 20 18 18 20 21 23 25 26 30 33 34 37 39 42 44 45 47 50 49 46 43 43 42 43 31 16 10 11 18 23 29 36 42 46
51 48 44 41 38 38 41 38 38 36 34 27 24 23 23 20 19 19 18 21 23 27 29 32 34 32 36 37 37 41 42 44 42 39 34 30 29 27 24 20 16 4 12 24 29 33 38
57 52 48 42 37 36 39 40 42 40 37 36 31 28 26 26 22 18 18 21 23 23 25 27 30 30 30 32 34 33 36 38 38 36 33 30 24 20 13 13 11 10 6 5 9 10 13
59 57 55 49 48 44 42 42 41 41 40 41 38 35 31 31 28 25 23 21 20 22 25 25 29 28 29 31 31 30 29 31 33 31 34 33 29 27 19 14 11 12 15 19 20 24 27
63 60 58 56 55 53 48 50 45 46 43 44 45 40 38 38 38 33 30 27 25 25 26 27 31 31 26 27 29 30 31 31 30 30 31 30 29 28 27 26 26 26 25 25 27 29 33
64 63 62 60 58 58 57 53 50 50 44 45 44 46 44 44 43 41 39 36 34 31 30 31 33 32 35 37 36 35 32 27 32 33 31 30 34 34 38 39 38 36 42 41 40 39 40
66 68 65 63 64 61 62 61 57 56 52 47 49 49 49 47 50 48 45 43 44 42 41 40 39 40 38 38 38 40 43 40 40 43 37 40 34 37 38 38 40 44 50 51 51 51 52
72 71 72 66 68 68 66 66 63 61 60 55 55 55 55 56 58 56 54 53 51 51 50 50 50 49 47 45 43 43 44 47 47 49 52 55 51 53 53 49 48 48 53 56 56 58 60
80 77 79 78 77 72 70 71 70 67 65 65 64 61 59 58 59 60 60 59 59 58 57 55 55 56 53 53 53 52 51 50 49 51 53 54 56 58 60 62 61 60 59 60 62 67 69
84 81 83 82 82 78 74 73 70 70 69 70 72 70 68 67 67 64 64 63 64 64 62 61 61 61 61 62 63 63 62 61 63 63 61 64 67 69 70 69 70 68 70 69 69 75 76
Wind_Direction
300 311 319 330 339 342 349 349 339 327 327 326 327 327 327 327 327 331 333 333 333 337 345 343 337 335 334 326 309 290 262 248 243 230 223 213 210 212 211 210 209 205 208 209 209 210 211
310 311 329 343 352 352 352 353 354 342 328 330 332 333 332 334 335 336 337 338 341 343 353 353 345 346 347 343 326 302 267 241 231 222 217 211 208 209 208 207 206 203 204 204 203 205 207
302 320 334 353 356 356 357 1 1 359 346 339 339 338 340 341 339 339 343 346 349 351 359 4 358 354 360 1 347 315 274 229 218 217 215 211 205 205 206 204 204 202 201 200 200 203 205
275 309 337 356 1 4 5 5 5 8 1 351 347 346 346 346 348 351 354 357 358 359 4 8 11 7 4 9 3 337 268 209 200 205 207 208 206 203 202 204 202 199 198 196 198 201 204
265 301 331 358 4 6 2 4 3 6 9 9 7 4 360 359 357 357 0 5 6 7 9 9 12 17 13 10 12 4 349 171 184 196 202 200 202 201 199 200 200 196 195 195 198 200 202
263 306 342 358 359 1 1 1 0 2 4 4 4 4 4 3 1 2 4 8 11 14 14 13 12 14 18 19 21 22 16 94 170 188 190 193 200 200 199 197 197 193 192 194 197 198 201
262 293 335 355 353 353 354 359 357 358 358 3 5 5 6 5 3 4 8 12 15 16 17 16 16 16 18 22 22 26 34 52 145 175 181 187 190 196 196 196 195 188 188 192 194 197 200
262 292 318 340 348 348 349 352 354 355 354 359 2 5 5 4 4 6 11 14 17 18 17 18 20 18 20 22 27 25 34 46 99 155 172 184 192 192 193 192 191 189 188 188 193 195 197
262 280 301 320 332 343 346 349 351 351 351 355 358 359 2 3 4 7 12 14 16 18 19 20 22 24 21 24 26 28 33 49 68 133 163 171 185 188 190 188 187 186 186 187 189 193 196
259 265 286 306 321 332 340 347 346 345 350 354 355 357 359 2 4 7 10 12 15 18 18 22 23 26 26 26 25 28 32 45 55 105 161 171 180 187 184 182 183 184 185 184 186 192 197
271 268 279 291 312 320 333 341 345 339 346 352 356 354 357 1 3 7 11 12 14 16 18 22 25 26 30 31 28 30 38 43 52 75 140 157 170 176 178 180 181 183 182 183 185 192 196
290 288 280 286 306 311 327 334 340 340 341 348 353 354 355 358 5 8 12 12 16 17 19 22 24 26 31 33 32 31 40 49 51 66 122 153 162 168 175 178 180 179 180 182 187 192 196
281 286 284 297 306 303 318 326 336 338 342 349 351 355 357 1 5 11 12 13 17 17 19 20 24 25 28 34 35 36 39 49 60 63 99 139 160 169 172 176 178 177 180 183 189 192 196
276 274 286 295 303 297 312 317 332 337 337 346 350 354 356 2 6 11 11 13 15 16 19 22 23 26 27 30 35 36 37 44 55 70 88 132 154 166 168 172 174 178 180 184 188 192 197
275 276 282 294 298 296 310 314 324 334 334 345 350 354 354 0 6 13 12 10 14 14 17 21 22 25 27 29 31 35 38 41 50 63 87 128 150 161 168 171 174 176 180 184 189 194 199
272 275 281 288 293 295 304 308 315 324 330 338 342 352 353 357 3 9 10 11 10 10 11 14 18 21 26 29 30 32 37 41 45 54 71 114 149 164 168 172 176 180 182 187 192 197 202
267 273 274 277 285 293 295 299 307 316 321 331 342 346 351 354 356 2 3 5 5 6 8 13 16 17 21 24 29 31 33 39 45 49 57 84 140 160 170 175 178 183 189 192 196 201 206
263 268 272 276 276 283 286 290 300 306 308 316 331 339 349 352 352 353 358 1 6 7 9 12 17 20 21 23 27 30 34 36 40 46 56 65 94 154 171 178 184 189 194 199 203 208 214
259 266 269 271 272 279 281 283 292 296 298 303 311 328 335 342 346 349 354 3 3 6 10 11 13 15 17 21 23 27 32 37 38 41 48 57 71 74 148 184 193 199 203 209 214 219 224
254 257 264 266 269 274 280 282 288 294 289 288 298 311 321 330 343 346 345 353 357 1 7 5 5 9 12 16 17 18 21 27 34 43 41 46 56 66 96 140 200 218 222 226 231 233 238
252 255 262 264 265 267 275 278 283 285 282 282 285 293 305 314 324 343 346 351 353 356 0 3 1 9 9 11 11 9 11 17 23 32 38 43 38 43 51 60 69 146 227 235 237 241 245
253 254 259 261 264 269 272 276 281 282 281 273 278 286 294 294 303 310 322 332 343 344 346 352 355 357 357 1 1 3 2 3 7 11 14 19 24 29 19 13 12 357 339 302 279 276 269
253 254 256 258 262 268 272 272 274 281 279 273 271 278 286 290 291 292 296 301 313 321 324 332 337 342 346 346 350 352 352 353 355 358 356 356 357 354 356 346 323 296 292 288 287 284 284
254 253 255 257 260 263 265 268 275 275 275 278 268 270 279 286 289 287 286 288 292 298 304 314 321 322 327 336 339 342 341 339 336 334 338 343 340 337 334 328 320 314 301 295 292 287 283
250 252 254 256 260 262 266 266 269 272 269 270 274 271 273 277 284 285 282 281 280 285 293 299 305 309 315 316 316 322 321 326 333 329 322 323 321 317 316 317 313 310 307 305 301 298 292
247 251 250 253 257 260 264 264 268 269 271 264 268 272 273 276 282 281 276 280 282 285 287 290 290 297 300 305 303 306 311 312 314 316 314 316 313 312 308 306 306 299 300 302 303 303 297
249 253 249 252 256 258 260 263 265 266 267 268 266 268 270 274 277 279 279 280 282 283 286 289 290 291 294 296 296 298 303 303 304 305 307 307 305 303 306 305 299 299 297 296 293 294 294
250 254 254 255 256 257 260 261 264 265 266 268 268 270 270 270 273 278 279 279 280 283 285 287 289 289 291 291 291 291 292 294 296 299 299 300 302 303 301 300 302 300 301 296 293 294 292
249 251 255 259 260 257 258 261 264 266 267 269 268 268 270 271 272 272 273 276 276 279 281 283 284 285 288 288 289 291 290 290 292 295 295 299 299 301 301 299 298 298 300 300 297 301 296